Wetterdaten: Woche 19.10.09 - 25.10.09 (KW43)
Datum Zeit Temperatur Luftfeuchte Luftdruck Niederschlag Windrichtung Wind
19.10.2009 00:00 1,0 C 93 % 1021,8 hPa 0,0 l/m NW 3,1 km/h (1 Bft)
19.10.2009 01:00 0,4 C 94 % 1021,7 hPa 0,0 l/m N 0,0 km/h (0 Bft)
19.10.2009 02:00 -0,3 C 94 % 1021,4 hPa 0,0 l/m N 0,5 km/h (0 Bft)
19.10.2009 03:00 -0,8 C 95 % 1021,1 hPa 0,0 l/m NW 1,9 km/h (1 Bft)
19.10.2009 04:00 -1,2 C 95 % 1020,8 hPa 0,0 l/m N 0,8 km/h (0 Bft)
19.10.2009 05:00 -1,6 C 95 % 1020,6 hPa 0,0 l/m NW 2,8 km/h (1 Bft)
19.10.2009 06:00 -1,8 C 95 % 1020,5 hPa 0,0 l/m N-NW 4,4 km/h (1 Bft)
19.10.2009 07:00 -2,1 C 96 % 1020,6 hPa 0,0 l/m N-NW 4,1 km/h (1 Bft)
19.10.2009 08:00 -1,6 C 97 % 1020,8 hPa 0,0 l/m N 5,7 km/h (1 Bft)
19.10.2009 09:00 -0,9 C 97 % 1021,1 hPa 0,0 l/m N 4,5 km/h (1 Bft)
19.10.2009 10:00 0,0 C 98 % 1021,1 hPa 0,2 l/m NO 5,5 km/h (1 Bft)
19.10.2009 11:00 1,1 C 97 % 1020,9 hPa 0,0 l/m O-NO 7,1 km/h (2 Bft)
19.10.2009 12:00 3,3 C 92 % 1020,4 hPa 0,0 l/m NO 10,1 km/h (2 Bft)
19.10.2009 13:00 5,0 C 83 % 1019,5 hPa 0,0 l/m O 14,9 km/h (3 Bft)
19.10.2009 14:00 5,3 C 79 % 1018,6 hPa 0,0 l/m O 18,5 km/h (3 Bft)
19.10.2009 15:00 4,7 C 78 % 1018,1 hPa 0,0 l/m O 19,6 km/h (3 Bft)
19.10.2009 16:00 5,2 C 78 % 1017,6 hPa 0,0 l/m O 15,8 km/h (3 Bft)
19.10.2009 17:00 4,9 C 80 % 1017,2 hPa 0,0 l/m O 12,6 km/h (3 Bft)
19.10.2009 18:00 3,6 C 86 % 1016,9 hPa 0,0 l/m N 7,1 km/h (2 Bft)
19.10.2009 19:00 1,7 C 92 % 1016,6 hPa 0,0 l/m N-NO 4,7 km/h (1 Bft)
19.10.2009 20:00 1,0 C 95 % 1016,2 hPa 0,0 l/m O-NO 3,9 km/h (1 Bft)
19.10.2009 21:00 0,3 C 95 % 1016,0 hPa 0,0 l/m O-NO 2,9 km/h (1 Bft)
19.10.2009 22:00 -0,3 C 96 % 1015,5 hPa 0,0 l/m N 2,1 km/h (1 Bft)
19.10.2009 23:00 -0,6 C 96 % 1015,0 hPa 0,0 l/m O-NO 2,1 km/h (1 Bft)
20.10.2009 00:00 -0,9 C 96 % 1014,3 hPa 0,0 l/m N 1,6 km/h (1 Bft)
20.10.2009 01:00 -1,3 C 95 % 1013,7 hPa 0,0 l/m N 1,6 km/h (1 Bft)
20.10.2009 02:00 -1,7 C 95 % 1013,5 hPa 0,0 l/m N 2,8 km/h (1 Bft)
20.10.2009 03:00 -1,7 C 96 % 1013,3 hPa 0,0 l/m N-NW 4,9 km/h (1 Bft)
20.10.2009 04:00 -1,8 C 96 % 1013,0 hPa 0,0 l/m N-NW 4,3 km/h (1 Bft)
20.10.2009 05:00 -1,8 C 97 % 1012,7 hPa 0,0 l/m N 4,1 km/h (1 Bft)
20.10.2009 06:00 -1,9 C 97 % 1012,9 hPa 0,0 l/m N-NW 3,9 km/h (1 Bft)
20.10.2009 07:00 -1,9 C 97 % 1013,2 hPa 0,0 l/m N 2,8 km/h (1 Bft)
20.10.2009 08:00 -1,8 C 97 % 1013,4 hPa 0,0 l/m O-NO 2,0 km/h (1 Bft)
20.10.2009 09:00 -1,4 C 97 % 1013,7 hPa 0,0 l/m W-SW 3,5 km/h (1 Bft)
20.10.2009 10:00 -0,9 C 98 % 1013,7 hPa 0,0 l/m W-NW 4,0 km/h (1 Bft)
20.10.2009 11:00 0,4 C 98 % 1013,6 hPa 0,0 l/m W 2,8 km/h (1 Bft)
20.10.2009 12:00 1,6 C 96 % 1013,2 hPa 0,0 l/m W 4,0 km/h (1 Bft)
20.10.2009 13:00 3,1 C 91 % 1012,6 hPa 0,0 l/m NO 6,7 km/h (2 Bft)
20.10.2009 14:00 4,4 C 87 % 1011,9 hPa 0,0 l/m N-NO 7,3 km/h (2 Bft)
20.10.2009 15:00 6,1 C 83 % 1011,1 hPa 0,0 l/m N-NO 7,4 km/h (2 Bft)
20.10.2009 16:00 6,8 C 82 % 1010,5 hPa 0,0 l/m NO 7,3 km/h (2 Bft)
20.10.2009 17:00 5,8 C 86 % 1010,4 hPa 0,0 l/m NO 7,0 km/h (2 Bft)
20.10.2009 18:00 3,5 C 91 % 1010,2 hPa 0,0 l/m N 5,7 km/h (1 Bft)
20.10.2009 19:00 1,7 C 94 % 1010,4 hPa 0,0 l/m N-NW 6,3 km/h (2 Bft)
20.10.2009 20:00 0,9 C 96 % 1010,2 hPa 0,0 l/m N 6,5 km/h (2 Bft)
20.10.2009 21:00 0,5 C 96 % 1010,1 hPa 0,0 l/m N-NW 7,4 km/h (2 Bft)
20.10.2009 22:00 0,1 C 97 % 1010,1 hPa 0,0 l/m N-NW 6,0 km/h (2 Bft)
20.10.2009 23:00 -0,1 C 97 % 1010,0 hPa 0,0 l/m N-NW 4,7 km/h (1 Bft)
21.10.2009 00:00 -0,1 C 97 % 1010,0 hPa 0,0 l/m N-NW 4,8 km/h (1 Bft)
21.10.2009 01:00 -0,2 C 97 % 1009,9 hPa 0,0 l/m N 3,9 km/h (1 Bft)
21.10.2009 02:00 -0,2 C 97 % 1009,7 hPa 0,0 l/m N-NW 4,8 km/h (1 Bft)
21.10.2009 03:00 -0,1 C 97 % 1009,5 hPa 0,0 l/m N 5,3 km/h (1 Bft)
21.10.2009 04:00 -0,1 C 97 % 1009,2 hPa 0,0 l/m N-NW 5,7 km/h (1 Bft)
21.10.2009 05:00 -0,1 C 97 % 1009,1 hPa 0,0 l/m N 4,9 km/h (1 Bft)
21.10.2009 06:00 0,0 C 98 % 1009,0 hPa 0,0 l/m N 5,7 km/h (1 Bft)
21.10.2009 07:00 0,2 C 97 % 1008,7 hPa 0,0 l/m N-NO 5,6 km/h (1 Bft)
21.10.2009 08:00 0,3 C 98 % 1008,7 hPa 0,0 l/m N 7,3 km/h (2 Bft)
21.10.2009 09:00 0,8 C 98 % 1009,1 hPa 0,2 l/m N 8,6 km/h (2 Bft)
21.10.2009 10:00 1,5 C 96 % 1009,0 hPa 0,0 l/m N-NO 6,4 km/h (2 Bft)
21.10.2009 11:00 2,7 C 93 % 1008,5 hPa 0,0 l/m N-NO 9,5 km/h (2 Bft)
21.10.2009 12:00 4,8 C 88 % 1008,3 hPa 0,0 l/m N 15,0 km/h (3 Bft)
21.10.2009 13:00 6,7 C 83 % 1007,4 hPa 0,0 l/m N-NO 11,4 km/h (2 Bft)
21.10.2009 14:00 8,9 C 78 % 1006,3 hPa 0,0 l/m NO 13,4 km/h (3 Bft)
21.10.2009 15:00 9,5 C 76 % 1005,5 hPa 0,0 l/m NO 14,6 km/h (3 Bft)
21.10.2009 16:00 9,7 C 77 % 1004,8 hPa 0,0 l/m O-NO 14,2 km/h (3 Bft)
21.10.2009 17:00 8,8 C 80 % 1004,2 hPa 0,0 l/m NO 10,1 km/h (2 Bft)
21.10.2009 18:00 7,3 C 85 % 1003,9 hPa 0,0 l/m NO 9,4 km/h (2 Bft)
21.10.2009 19:00 6,2 C 89 % 1003,4 hPa 0,0 l/m N-NO 8,6 km/h (2 Bft)
21.10.2009 20:00 5,4 C 91 % 1002,7 hPa 0,0 l/m N-NO 7,0 km/h (2 Bft)
21.10.2009 21:00 5,1 C 92 % 1002,2 hPa 0,0 l/m NO 8,9 km/h (2 Bft)
21.10.2009 22:00 5,0 C 93 % 1001,9 hPa 0,0 l/m NO 9,0 km/h (2 Bft)
21.10.2009 23:00 4,3 C 94 % 1001,3 hPa 0,0 l/m N 9,9 km/h (2 Bft)
22.10.2009 00:00 3,8 C 95 % 1001,0 hPa 0,0 l/m N 7,9 km/h (2 Bft)
22.10.2009 01:00 3,8 C 96 % 1001,4 hPa 0,0 l/m N 11,4 km/h (2 Bft)
22.10.2009 02:00 3,8 C 96 % 1002,6 hPa 0,0 l/m N-NW 7,1 km/h (2 Bft)
22.10.2009 03:00 3,9 C 96 % 1003,2 hPa 0,0 l/m N-NO 2,9 km/h (1 Bft)
22.10.2009 04:00 4,0 C 95 % 1003,0 hPa 0,0 l/m N-NO 2,3 km/h (1 Bft)
22.10.2009 05:00 3,8 C 95 % 1003,3 hPa 0,0 l/m SO 2,3 km/h (1 Bft)
22.10.2009 06:00 3,6 C 96 % 1003,0 hPa 0,0 l/m N 1,5 km/h (1 Bft)
22.10.2009 07:00 3,2 C 95 % 1002,4 hPa 0,0 l/m N 1,9 km/h (1 Bft)
22.10.2009 08:00 3,1 C 96 % 1002,7 hPa 0,0 l/m N-NW 3,3 km/h (1 Bft)
22.10.2009 09:00 3,8 C 97 % 1003,0 hPa 0,0 l/m N-NW 6,0 km/h (2 Bft)
22.10.2009 10:00 4,8 C 96 % 1003,1 hPa 0,0 l/m N-NW 2,8 km/h (1 Bft)
22.10.2009 11:00 5,7 C 95 % 1003,7 hPa 0,0 l/m N 2,3 km/h (1 Bft)
22.10.2009 12:00 6,6 C 95 % 1004,0 hPa 0,0 l/m N-NO 4,8 km/h (1 Bft)
22.10.2009 13:00 7,3 C 95 % 1004,1 hPa 0,0 l/m N 1,2 km/h (1 Bft)
22.10.2009 14:00 8,7 C 92 % 1004,2 hPa 0,0 l/m N-NW 2,3 km/h (1 Bft)
22.10.2009 15:00 10,0 C 89 % 1004,4 hPa 0,0 l/m SW 3,5 km/h (1 Bft)
22.10.2009 16:00 10,5 C 88 % 1004,6 hPa 0,0 l/m SO 4,4 km/h (1 Bft)
22.10.2009 17:00 10,4 C 88 % 1004,5 hPa 0,0 l/m S-SO 4,3 km/h (1 Bft)
22.10.2009 18:00 10,0 C 88 % 1004,8 hPa 0,0 l/m N 0,8 km/h (0 Bft)
22.10.2009 19:00 8,6 C 90 % 1004,9 hPa 0,0 l/m S-SO 0,9 km/h (0 Bft)
22.10.2009 20:00 7,3 C 92 % 1004,9 hPa 0,0 l/m S-SO 3,9 km/h (1 Bft)
22.10.2009 21:00 6,4 C 93 % 1005,5 hPa 0,0 l/m S-SO 3,2 km/h (1 Bft)
22.10.2009 22:00 5,3 C 93 % 1005,8 hPa 0,0 l/m N-NW 2,5 km/h (1 Bft)
22.10.2009 23:00 5,0 C 96 % 1005,5 hPa 0,0 l/m N-NW 5,5 km/h (1 Bft)
23.10.2009 00:00 5,1 C 97 % 1006,0 hPa 0,2 l/m N-NW 3,7 km/h (1 Bft)
23.10.2009 01:00 5,1 C 97 % 1006,1 hPa 0,0 l/m N-NW 3,5 km/h (1 Bft)
23.10.2009 02:00 4,9 C 97 % 1006,6 hPa 0,0 l/m N-NW 4,9 km/h (1 Bft)
23.10.2009 03:00 4,6 C 97 % 1007,1 hPa 0,0 l/m N-NW 4,1 km/h (1 Bft)
23.10.2009 04:00 4,4 C 98 % 1007,2 hPa 0,0 l/m N-NO 4,4 km/h (1 Bft)
23.10.2009 05:00 4,0 C 98 % 1007,8 hPa 0,0 l/m N-NW 6,5 km/h (2 Bft)
23.10.2009 06:00 3,8 C 98 % 1008,6 hPa 0,0 l/m N-NW 2,5 km/h (1 Bft)
23.10.2009 07:00 3,9 C 98 % 1009,4 hPa 0,0 l/m N 1,9 km/h (1 Bft)
23.10.2009 08:00 4,0 C 98 % 1010,1 hPa 0,0 l/m N-NW 2,3 km/h (1 Bft)
23.10.2009 09:00 4,4 C 99 % 1010,8 hPa 0,0 l/m S-SW 4,9 km/h (1 Bft)
23.10.2009 10:00 5,2 C 99 % 1011,3 hPa 0,0 l/m S 3,6 km/h (1 Bft)
23.10.2009 11:00 6,3 C 99 % 1011,8 hPa 0,0 l/m S-SW 7,8 km/h (2 Bft)
23.10.2009 12:00 7,3 C 99 % 1011,9 hPa 0,0 l/m S 6,5 km/h (2 Bft)
23.10.2009 13:00 8,4 C 99 % 1011,9 hPa 0,0 l/m S-SW 7,2 km/h (2 Bft)
23.10.2009 14:00 8,8 C 98 % 1012,2 hPa 0,0 l/m S-SW 7,2 km/h (2 Bft)
23.10.2009 15:00 8,8 C 97 % 1012,8 hPa 0,4 l/m SW 7,5 km/h (2 Bft)
23.10.2009 16:00 8,7 C 97 % 1013,5 hPa 1,6 l/m S-SO 3,5 km/h (1 Bft)
23.10.2009 17:00 8,7 C 97 % 1014,1 hPa 0,8 l/m S-SW 3,7 km/h (1 Bft)
23.10.2009 18:00 8,6 C 97 % 1014,7 hPa 1,2 l/m S-SW 2,9 km/h (1 Bft)
23.10.2009 19:00 8,3 C 97 % 1015,3 hPa 0,8 l/m S-SW 1,2 km/h (1 Bft)
23.10.2009 20:00 8,2 C 98 % 1015,6 hPa 0,8 l/m N 0,0 km/h (0 Bft)
23.10.2009 21:00 8,2 C 98 % 1015,8 hPa 0,4 l/m N 0,0 km/h (0 Bft)
23.10.2009 22:00 8,1 C 98 % 1016,1 hPa 0,6 l/m N 0,3 km/h (0 Bft)
23.10.2009 23:00 8,1 C 98 % 1016,4 hPa 0,2 l/m N 0,3 km/h (0 Bft)
24.10.2009 00:00 8,0 C 98 % 1016,6 hPa 0,0 l/m N 0,0 km/h (0 Bft)
24.10.2009 01:00 7,8 C 98 % 1016,8 hPa 0,0 l/m N 0,0 km/h (0 Bft)
24.10.2009 02:00 7,8 C 98 % 1016,9 hPa 0,0 l/m N 0,1 km/h (0 Bft)
24.10.2009 03:00 7,6 C 98 % 1017,0 hPa 0,0 l/m W 2,3 km/h (1 Bft)
24.10.2009 04:00 7,4 C 98 % 1017,1 hPa 0,0 l/m W 1,9 km/h (1 Bft)
24.10.2009 05:00 7,3 C 98 % 1017,7 hPa 0,0 l/m W-NW 3,7 km/h (1 Bft)
24.10.2009 06:00 6,8 C 98 % 1017,8 hPa 0,0 l/m N 0,5 km/h (0 Bft)
24.10.2009 07:00 6,6 C 98 % 1017,9 hPa 0,0 l/m W 3,2 km/h (1 Bft)
24.10.2009 08:00 6,8 C 98 % 1018,1 hPa 0,0 l/m N 1,5 km/h (1 Bft)
24.10.2009 09:00 7,1 C 99 % 1018,3 hPa 0,0 l/m W-SW 4,1 km/h (1 Bft)
24.10.2009 10:00 7,9 C 99 % 1018,3 hPa 0,0 l/m SW 6,4 km/h (2 Bft)
24.10.2009 11:00 8,6 C 99 % 1018,3 hPa 0,0 l/m SW 6,4 km/h (2 Bft)
24.10.2009 12:00 9,2 C 96 % 1018,3 hPa 0,0 l/m W 3,2 km/h (1 Bft)
24.10.2009 13:00 10,5 C 86 % 1017,6 hPa 0,0 l/m NW 4,7 km/h (1 Bft)
24.10.2009 14:00 11,1 C 83 % 1017,0 hPa 0,0 l/m O-SO 6,0 km/h (2 Bft)
24.10.2009 15:00 12,1 C 79 % 1016,3 hPa 0,0 l/m SO 8,0 km/h (2 Bft)
24.10.2009 16:00 12,7 C 76 % 1016,3 hPa 0,0 l/m SW 4,8 km/h (1 Bft)
24.10.2009 17:00 11,3 C 86 % 1016,5 hPa 0,0 l/m N 1,5 km/h (1 Bft)
24.10.2009 18:00 9,3 C 93 % 1016,7 hPa 0,0 l/m W 2,5 km/h (1 Bft)
24.10.2009 19:00 8,0 C 96 % 1017,1 hPa 0,0 l/m N 1,2 km/h (1 Bft)
24.10.2009 20:00 7,5 C 97 % 1016,9 hPa 0,0 l/m N 0,0 km/h (0 Bft)
24.10.2009 21:00 7,6 C 98 % 1017,2 hPa 0,0 l/m N 0,1 km/h (0 Bft)
24.10.2009 22:00 7,6 C 98 % 1016,8 hPa 0,0 l/m N 1,3 km/h (1 Bft)
24.10.2009 23:00 7,4 C 98 % 1016,8 hPa 0,0 l/m N 0,1 km/h (0 Bft)
25.10.2009 00:00 7,6 C 98 % 1016,5 hPa 0,0 l/m W 1,7 km/h (1 Bft)
25.10.2009 01:00 8,0 C 98 % 1016,4 hPa 0,0 l/m S-SW 5,2 km/h (1 Bft)
25.10.2009 02:00 8,5 C 98 % 1016,3 hPa 0,0 l/m S 7,0 km/h (2 Bft)
25.10.2009 03:00 8,7 C 98 % 1016,0 hPa 0,0 l/m SO 5,6 km/h (1 Bft)
25.10.2009 04:00 8,5 C 98 % 1016,0 hPa 0,0 l/m S-SO 2,9 km/h (1 Bft)
25.10.2009 05:00 8,1 C 98 % 1016,1 hPa 0,0 l/m S-SW 3,1 km/h (1 Bft)
25.10.2009 06:00 8,2 C 98 % 1015,9 hPa 0,0 l/m S 8,4 km/h (2 Bft)
25.10.2009 07:00 8,4 C 94 % 1016,2 hPa 0,0 l/m SO 6,3 km/h (2 Bft)
25.10.2009 08:00 9,2 C 92 % 1016,5 hPa 0,0 l/m SO 7,1 km/h (2 Bft)
25.10.2009 09:00 10,1 C 91 % 1016,4 hPa 0,0 l/m S-SO 6,3 km/h (2 Bft)
25.10.2009 10:00 11,3 C 90 % 1016,5 hPa 1,6 l/m S-SO 5,7 km/h (1 Bft)
25.10.2009 11:00 11,5 C 93 % 1016,6 hPa 1,2 l/m S-SW 3,7 km/h (1 Bft)
25.10.2009 12:00 11,7 C 95 % 1016,5 hPa 0,4 l/m SO 1,9 km/h (1 Bft)
25.10.2009 13:00 12,1 C 96 % 1016,2 hPa 0,0 l/m S 4,0 km/h (1 Bft)
25.10.2009 14:00 12,5 C 97 % 1016,0 hPa 0,0 l/m S-SW 5,3 km/h (1 Bft)
25.10.2009 15:00 12,6 C 96 % 1016,2 hPa 0,0 l/m S-SW 4,9 km/h (1 Bft)
25.10.2009 16:00 12,4 C 96 % 1016,5 hPa 0,2 l/m S-SW 4,8 km/h (1 Bft)
25.10.2009 17:00 12,1 C 96 % 1016,9 hPa 0,6 l/m SW 2,8 km/h (1 Bft)
25.10.2009 18:00 11,8 C 97 % 1017,3 hPa 0,6 l/m SW 2,8 km/h (1 Bft)
25.10.2009 19:00 11,6 C 97 % 1017,3 hPa 0,2 l/m SW 2,4 km/h (1 Bft)
25.10.2009 20:00 11,4 C 97 % 1017,5 hPa 0,0 l/m N 0,0 km/h (0 Bft)
25.10.2009 21:00 11,2 C 97 % 1017,5 hPa 0,0 l/m N 0,0 km/h (0 Bft)
25.10.2009 22:00 11,1 C 97 % 1017,6 hPa 0,0 l/m N 0,0 km/h (0 Bft)
25.10.2009 23:00 10,9 C 97 % 1017,6 hPa 0,6 l/m N-NO 5,6 km/h (1 Bft)
Min-Datum _ 19.10.09 24.10.09 22.10.09 - - 19.10.09
_ Min-Zeit 07:05 16:25 00:45 - - 00:55
Minimum _ -2,1 C 73 % 1000,8 hPa - - 0,0 km/h (0 Bft)
Max-Datum _ 24.10.09 23.10.09 19.10.09 23.10.09 - 19.10.09
_ Max-Zeit 16:20 09:20 00:10 16:15 - 15:05
Maximum _ 12,9 C 99 % 1021,9 hPa 1,6 l/m - 25,7 km/h
O-NO (4 Bft)
Durchschnitt _ 5,3 C 94 % 1012,4 hPa #12,8 l/m N-NW 4,8 km/h (1 Bft)